Вернуться в каталог

STARLINK-36255

АктивенСвязьVLEO
NORAD 67102·PAYLOAD·🇺🇸 United States

Запущен Dec 15, 2025 с Cape Canaveral Space Force Station

Loading…

Ближайшие Пролёты (ближайшие 24 часа)

TLE

СвежийSource: CelesTrak SupGP

Эпоха: Sep 15, 2026, 02:39 UTC

1 67102C 25299A   26258.11090278  .00657630  00000+0  19445-1 0  2582
2 67102  43.0012 179.0997 0001472 271.0513 225.2975 15.33768856    18

Отслеживайте STARLINK-36255 в реальном времени с AllMySat

Download on the App Store